EW2690 Weather Reports


Display with metric or nautical units.
time (UTC)temp
F
wind
direction
speed
MPH
gust
MPH
rain 1hr
in
rain 24hr
in
rain mn
in
humidity
%
barometer
mb
20260902053025 74 196 0.0 2.0 0.00 0.05 0.00 92 1025.9
20260902050336 75 196 0.0 3.0 0.00 0.05 0.00 91 1025.6
20260902050058 75 196 0.0 3.0 0.00 0.05 0.00 91 1025.6
20260902043012 75 251 0.0 2.0 0.00 0.05 0.00 89 1025.9
20260902040413 76 325 1.0 2.0 0.00 0.05 0.00 86 1025.7
20260902040036 76 325 0.0 2.0 0.00 0.05 0.00 86 1025.7
20260902033012 77 305 0.0 3.0 0.00 0.05 0.05 84 1025.7
20260902030311 77 248 2.0 6.0 0.00 0.05 0.05 82 1025.6
20260902030032 77 282 3.0 6.0 0.00 0.05 0.05 82 1025.6
20260902023012 78 311 1.0 7.0 0.00 0.05 0.05 80 1025.6
20260902020329 79 313 0.0 6.0 0.00 0.05 0.05 77 1025.3
20260902020041 79 313 1.0 6.0 0.00 0.05 0.05 77 1025.3
20260902013123 79 325 2.0 10.0 0.00 0.06 0.05 78 1025.2
20260902010317 80 84 1.0 4.0 0.00 0.06 0.05 77 1024.7
20260902010019 80 249 2.0 4.0 0.00 0.06 0.05 76 1024.6
20260902003054 81 231 2.0 9.0 0.00 0.06 0.05 76 1024.4
20260902000355 82 209 2.0 15.0 0.00 0.06 0.05 78 1024.4
20260902000117 82 281 4.0 15.0 0.00 0.06 0.05 78 1024.4
20260901233032 83 346 3.0 12.0 0.00 0.06 0.05 80 1024.8
20260901230343 84 265 5.0 14.0 0.00 0.06 0.05 79 1025.0
20260901230018 84 292 3.0 13.0 0.00 0.06 0.05 80 1025.0
20260901223045 84 270 2.0 6.0 0.00 0.06 0.05 81 1024.9
20260901220324 84 306 2.0 7.0 0.00 0.06 0.05 81 1025.1
20260901220018 84 303 2.0 8.0 0.00 0.06 0.05 80 1025.1
20260901213018 83 321 2.0 7.0 0.00 0.06 0.05 80 1025.1
20260901210422 84 261 4.0 10.0 0.00 0.06 0.05 80 1025.2
20260901210340 84 261 4.0 10.0 0.00 0.06 0.05 80 1025.2
20260901210016 84 254 2.0 8.0 0.00 0.06 0.05 80 1025.3
20260901203032 86 284 3.0 9.0 0.00 0.06 0.05 79 1025.1
20260901200331 86 309 5.0 8.0 0.00 0.06 0.05 76 1024.9
20260901200027 86 286 2.0 5.0 0.00 0.06 0.05 77 1024.9
20260901193104 88 296 3.0 8.0 0.00 0.06 0.05 74 1024.8
20260901190338 88 278 4.0 6.0 0.00 0.06 0.05 72 1025.0
20260901190040 88 310 4.0 6.0 0.00 0.06 0.05 72 1025.0
20260901183101 87 288 3.0 9.0 0.00 0.06 0.05 74 1025.1
20260901180313 87 325 4.0 9.0 0.00 0.06 0.05 74 1025.5
20260901180031 87 325 4.0 8.0 0.00 0.06 0.05 75 1025.5
20260901173045 86 333 3.0 10.0 0.00 0.06 0.05 76 1025.6
20260901170319 85 316 3.0 10.0 0.00 0.06 0.05 79 1026.0
20260901170017 84 261 2.0 12.0 0.00 0.06 0.05 78 1026.0
20260901163054 83 320 5.0 15.0 0.00 0.06 0.05 78 1026.1
20260901160335 83 294 4.0 14.0 0.00 0.06 0.05 77 1026.1
20260901160113 83 272 6.0 14.0 0.00 0.06 0.05 77 1026.1
20260901160010 83 272 6.0 14.0 0.00 0.06 0.05 77 1026.1
20260901153009 83 284 7.0 14.0 0.00 0.06 0.05 77 1025.8
20260901150328 83 277 6.0 14.0 0.00 0.06 0.05 77 1026.0
20260901150041 83 281 7.0 14.0 0.00 0.06 0.05 77 1026.0
20260901143046 83 331 9.0 13.0 0.00 0.06 0.05 78 1025.7
20260901140314 83 323 5.0 14.0 0.00 0.06 0.05 81 1025.6
20260901140010 83 319 3.0 14.0 0.00 0.06 0.05 81 1025.5
20260901133137 82 295 9.0 15.0 0.00 0.06 0.05 80 1025.5
20260901130345 81 310 6.0 12.0 0.00 0.06 0.05 82 1025.6
20260901130107 81 296 6.0 12.0 0.00 0.06 0.05 83 1025.6
20260901123018 79 291 2.0 5.0 0.00 0.06 0.05 86 1025.8
20260901120315 77 215 1.0 4.0 0.00 0.06 0.05 89 1025.7
20260901120027 77 339 1.0 4.0 0.00 0.06 0.05 89 1025.7
20260901113046 76 236 4.0 10.0 0.00 0.06 0.05 90 1025.5
20260901110320 76 228 2.0 3.0 0.00 0.06 0.05 90 1025.3
20260901110100 76 236 1.0 3.0 0.00 0.06 0.05 90 1025.3
20260901103022 76 255 2.0 6.0 0.00 0.06 0.05 90 1025.1
20260901100319 75 165 2.0 7.0 0.00 0.06 0.05 91 1025.0
20260901100014 75 243 2.0 9.0 0.00 0.06 0.05 91 1025.0
20260901093035 75 340 2.0 8.0 0.00 0.06 0.05 92 1024.8
20260901090352 74 250 1.0 4.0 0.00 0.06 0.05 94 1025.0
20260901090032 74 261 2.0 6.0 0.00 0.06 0.05 94 1024.9
20260901083112 73 230 2.0 5.0 0.02 0.06 0.05 96 1024.9
20260901080352 74 181 1.0 3.0 0.04 0.06 0.05 95 1024.9
20260901080033 74 181 1.0 8.0 0.04 0.06 0.05 95 1024.8
20260901073032 75 234 2.0 7.0 0.03 0.04 0.03 91 1025.4
20260901070412 76 248 2.0 9.0 0.01 0.02 0.01 88 1025.3
20260901070109 76 221 3.0 9.0 0.01 0.02 0.01 87 1025.3
20260901070026 76 221 3.0 9.0 0.01 0.02 0.01 87 1025.3
20260901063026 76 225 3.0 7.0 0.00 0.01 0.00 85 1025.3
20260901060343 75 190 2.0 6.0 0.00 0.01 0.00 87 1025.3
20260901060019 75 213 2.0 7.0 0.00 0.01 0.00 87 1025.3